{"data":{"norad_id":37481,"intl_designator":"2011-019A","name":"SBIRS GEO-1 (USA 230)","alt_names":[],"object_type":"PAYLOAD","status":"ACTIVE","operator":null,"country":"US","launch_date":"2011-05-07","launch_site_code":"AFETR","launch_vehicle":null,"mission":null,"orbit_class":"UNKNOWN","rcs_meters":19.9526,"size_class":null,"mass_kg":null,"dimensions":null,"purposes":["comms"],"wikipedia_slug":null,"has_3d_model":false,"image_url":null,"decayed_at":null,"tle_current":{"epoch":"2026-09-19T17:24:38.481696Z","epoch_age_seconds":85048,"freshness":"FRESH","line1":"1 37481U 11019A   26262.72544539  .00000097  00000+0  00000+0 0  9996","line2":"2 37481   4.7427  52.9828 0001786 131.6484 126.9763  1.00272473 56340","mean_motion":1.00272473,"eccentricity":0.0001786,"inclination_deg":4.7427,"raan_deg":52.9828,"arg_perigee_deg":131.6484,"mean_anomaly_deg":126.9763,"bstar":0,"rev_number":5634,"period_min":1436.0870505308,"perigee_km":35778.871504237,"apogee_km":35793.9326776,"semimajor_km":42164.539090918,"source":"CELESTRAK","updated_at":"2026-09-20T09:00:35.168227Z"}}}